STARLINK-36953, 68010

Orbit data source: Space-Track

STARLINK-36953, 68010 is a payload satellite owned by SpaceX/Seattle (US) in LEO that was launched on Fri, 27 Feb 2026 UTC via an FALCON 9 launch vehicle from the Air Force Eastern Test Range (AFETR). Payload-class satellites include a variety of spacecraft equipped with specific instruments for various scientific and technological missions. These include communications satellites like Starlink; space stations such as the ISS; scientific satellites like the Hubble; Earth observation satellites from companies like Planet Labs, Umbra, and HawkEye 360; GPS; miniature CubeSats for education and research; and military/defense satellites.

Loading next visibility...
Identifier
68010, 2026-039AA
Orbit
LEO
Country
Flag of USUS
Related business
Manufacturer
SpaceX/Seattle
Mission
Operational Commercial Communications
Bus & Motor
STARLINK V2MO, Unknown motor
Mass
575 kg wet, ~530 kg dry
Launch date (UTC)
2026-02-27 (2 months ago)
Launch vehicle
FALCON 9
Launch site
Air Force Eastern Test Range (AFETR)
Object type
Payload
Rocket body
Debris
Shape & HBR
Box + 2 Pan, 17.7 m
Radar Cross Section
36.964 m²

Expand to show TLE details & history
Last TLE update: 7 hours ago

TLE from 7 hours ago
0 STARLINK-36953
1 68010U 26039AA  26119.28693659  .00016979  00000-0  62496-3 0  9994
2 68010  42.9963 122.9822 0000429 200.0000 160.0835 15.27586338  9441
Epoch: 2026-04-29T06:53Z
TLE epoch observation values (Epoch: 2026-04-29T06:53:11.321Z)
Latitude
-0°
Longitude
162.43496°
Altitude
483.082 km
Speed
7.626 km/s
True Right ascension
08h 11m 55s
True Declination
0° 00' 00"
Sunlit
Object was in daylight at epoch
Visualization orbit readout
Latitude
Unknown
Longitude
Unknown
Altitude
Unknown
Speed
Unknown
Apparent Right ascension
Unknown
Apparent Declination
Unknown
Sunlit
N/A
Visualization observer readout
Local Sidereal Time
21:51:14
Azimuth
Unknown
Elevation
Unknown
Doppler factor
Unknown
Orbital elements
Apogee altitude
485.27 km
Perigee altitude
484.681 km
Semi-major axis
6,863.113 km
Eccentricity
0.00004
Inclination
42.9963°
RAAN
122.9822°
Arg. of periapsis
200°
True anomaly
160.08517°
Mean anomaly
160.0835°
Eccentric anomaly
160.08434°
Mean motion
3.81735 °/min
Orbital period
94.31 mins
BSTAR
0.00062496
Loading maneuver chart data...
Computing Atmospheric mass density...
Loading historical data...
Loading historical data...
Loading historical data...
Loading historical data...
Loading historical data...
Loading historical data...
Loading historical data...

Documentation

Showing up to 5 results
|